Regional Weather Roundup
Issued by NWS

Home | Current Version | Previous Version | Graphics & Text | Print | Product List | Glossary On
Versions: 1 2 3 4 5 6 7 8 9 10 11 12 13 14 15 16 17 18 19 20 21 22 23 24 25 26 27 28 29 30 31 32 33 34 35 36 37 38 39 40 41 42 43 44 45 46 47 48 49 50
000
ASUS45 KPSR 230300
RWRAZ

PRELIMINARY ARIZONA REGIONAL HOURLY WEATHER ROUNDUP
NATIONAL WEATHER SERVICE PHOENIX AZ
800 PM MST TUE APR 22 2014

NOTE: FAIR INDICATES FEW OR NO CLOUDS BELOW 12,000 FEET WITH NO
SIGNIFICANT WEATHER AND/OR OBSTRUCTIONS TO VISIBILITY.

AZZ001>003-036-230400-
NORTHWEST ARIZONA

CITY           SKY/WX    TMP DP  RH WIND       PRES   REMARKS
KINGMAN        CLEAR     69  18  14 SW16      29.76R
$$

AZZ004>008-015-016-018-230400-
NORTH CENTRAL ARIZONA

CITY           SKY/WX    TMP DP  RH WIND       PRES   REMARKS
GRAND CANYON   CLOUDY    56  23  27 SW16G29   29.87S
WILLIAMS       CLOUDY    57  25  28 S17G24    29.98R
PRESCOTT       CLOUDY    64  26  23 SW7       29.87R
FLAGSTAFF      MOCLDY    57  21  24 SW28G37   29.92R
PAYSON         MOCLDY    68  25  19 SW10G23   29.91R
PAGE           CLOUDY    74  24  15 SW14G32   29.68R
$$

AZZ009>014-017-230400-
NORTHEAST ARIZONA

CITY           SKY/WX    TMP DP  RH WIND       PRES   REMARKS
WINSLOW        NOT AVBL
SAINT JOHNS    MOCLDY    68  26  20 SW15      29.89R
WINDOW ROCK    CLOUDY    64  17  16 SW16G23   29.91R
SHOW LOW       MOCLDY    61  25  25 SW16G23   29.96S
$$

AZZ023-230400-
GREATER PHOENIX AREA

CITY           SKY/WX    TMP DP  RH WIND       PRES   REMARKS
PHOENIX        CLOUDY    87  31  13 W16       29.68R
GLENDALE       MOCLDY    86  32  14 S10G18    29.69R
DEER VALLEY    CLOUDY    84  26  12 SW12G21   29.69R
SCOTTSDALE     CLOUDY    85  30  13 SW8G21    29.72R
MESA-FALCON    MOCLDY    84  32  15 W12G17    29.70R
MESA-GATEWAY   MOCLDY    84  27  12 W12       29.73R
CHANDLER       MOCLDY    86  30  13 SW12G21   29.70R
$$

AZZ027-028-230400-
SOUTHWEST MARICOPA COUNTY AND PINAL COUNTY

CITY           SKY/WX    TMP DP  RH WIND       PRES   REMARKS
CASA GRANDE    CLOUDY    82  30  15 SW15      29.74R
GILA BEND      MOCLDY    84  28  13 S13G22    29.71R
$$

AZZ503-504-507>509-230400-
SOUTHEAST ARIZONA

CITY           SKY/WX    TMP DP  RH WIND       PRES   REMARKS
TUCSON         CLOUDY    82  27  13 W9        29.82R
RYAN FIELD       N/A     82  30  15 SW13      29.81R
NOGALES        MOCLDY    73  23  15 SW8       29.90R
SIERRA VISTA   MOCLDY    72  19  14 SW9       29.93R
SAFFORD        CLOUDY    82  20  10 W17       29.77R
$$

AZZ020-021-025-026-031-230400-
SOUTHWEST ARIZONA

CITY           SKY/WX    TMP DP  RH WIND       PRES   REMARKS
YUMA           MOCLDY    81  21  11 W9        29.71R
$$

CAZ031-033-041-043-047-048-061-230400-
SOUTHERN CALIFORNIA

CITY           SKY/WX    TMP DP  RH WIND       PRES   REMARKS
DOWNTOWN L.A.  CLEAR     62  47  57 VRB3      29.90R
L.A. AIRPORT   PTCLDY    62  47  57 W12       29.90S
SAN DIEGO      MOCLDY    63  51  65 W8        29.95R
BURBANK        CLEAR     61  48  62 S6        29.89R
ONTARIO        CLEAR     62  47  57 SW13      29.89R
RIVERSIDE      CLEAR     62  47  57 W10       29.89R
PALM SPRINGS   CLEAR     77  36  22 NW21G33   29.73R
EL CENTRO NAS  PTCLDY    75  27  17 W29G38    29.74R
IMPERIAL       CLEAR     74  32  21 SW14G29   29.73R
BLYTHE         CLEAR     81  30  15 SW14      29.69R
$$

NVZ020-UTZ003-230400-
SOUTHERN NEVADA-UTAH

CITY           SKY/WX    TMP DP  RH WIND       PRES   REMARKS
LAS VEGAS      NOT AVBL
SALT LAKE CITY LGT RAIN  44  44 100 NW17G24   29.82R
$$

NMZ009-TXZ055-230400-
NEW MEXICO-WEST TEXAS

CITY           SKY/WX    TMP DP  RH WIND       PRES   REMARKS
ALBUQUERQUE    PTCLDY    72  28  19 S14       29.86S
EL PASO        MOCLDY    81  32  17 S12       29.82R
$$


........................KEY........................
SKY/WX - SKY CONDITION/WEATHER
TMP    - TEMPERATURE IN FAHRENHEIT
DP     - DEW POINT IN FAHRENHEIT
RH     - RELATIVE HUMIDITY IN PERCENT
WIND   - DIRECTION AND SPEED IN MILES PER HOUR (MPH)
VRB    - VARIABLE WIND DIRECTION
PRES   - MEAN SEA LEVEL PRESSURE IN INCHES OF MERCURY
         F - FALLING PRESSURE   R - RISING PRESSURE
         S - STEADY PRESSURE
VSB    - VISIBILITY IN MILES
HX     - HEAT INDEX IN FAHRENHEIT
WCI    - WIND CHILL INDEX IN FAHRENHEIT
TC     - TEMPERATURE IN CELSIUS WHICH IS ALSO KNOWN AS
         TEMPERATURE IN CENTIGRADE
AFB    - AIR FORCE BASE
         LUKE AFB IS LUKE AIR FORCE BASE
         DAVIS-MONTHAN IS DAVIS-MONTHAN AIR FORCE BASE
NAS    - NAVAL AIR STATION
         EL CENTRO NAS IS EL CENTRO NAVAL AIR STATION
N/A    - NOT AVAILABLE



USA.gov is the U.S. government's official web portal to all federal, state and local government web resources and services.